KLM1279 EHAM-EKCH

Flight info

Callsign KLM1279
Flight time 1h 7m
Altitude 31000
Route ANDIK N873 JUIST DCT DOSUR P729 TUDLO
Aircraft B738/M-SDE2E3FGHIRWXY/LB1

Departure

Time 2026-05-06 18:38
Airport Amsterdam Airport Schiphol (EHAM)

Arrival

Time 2026-05-06 19:45
Airport Copenhagen Kastrup Airport (EKCH)
Time Latitude Longitude Altitude Speed Heading
2026-05-06 18:06 52.30705 4.77342 13 ft 0 kts
2026-05-06 18:28 52.30704 4.77342 13 ft 2 kts
2026-05-06 18:28 52.30675 4.77336 13 ft 2 kts 24°
2026-05-06 18:29 52.30650 4.77310 13 ft 3 kts 54°
2026-05-06 18:29 52.30642 4.77284 13 ft 0 kts 85°
2026-05-06 18:30 52.30642 4.77286 13 ft 1 kts 83°
2026-05-06 18:30 52.30642 4.77349 13 ft 10 kts 94°
2026-05-06 18:31 52.30623 4.77477 13 ft 15 kts 139°
2026-05-06 18:31 52.30548 4.77437 13 ft 11 kts 245°
2026-05-06 18:31 52.30555 4.77356 13 ft 5 kts 297°
2026-05-06 18:31 52.30566 4.77251 13 ft 15 kts 250°
2026-05-06 18:32 52.30500 4.77060 13 ft 22 kts 238°
2026-05-06 18:32 52.30428 4.76866 13 ft 17 kts 236°
2026-05-06 18:32 52.30367 4.76713 13 ft 18 kts 237°
2026-05-06 18:32 52.30289 4.76509 13 ft 23 kts 238°
2026-05-06 18:33 52.30208 4.76296 13 ft 20 kts 238°
2026-05-06 18:33 52.30138 4.76116 13 ft 23 kts 237°
2026-05-06 18:33 52.30048 4.75877 13 ft 24 kts 238°
2026-05-06 18:33 52.29971 4.75678 13 ft 19 kts 237°
2026-05-06 18:34 52.29890 4.75463 13 ft 24 kts 239°
2026-05-06 18:34 52.29836 4.75244 13 ft 18 kts 283°
2026-05-06 18:34 52.29899 4.75092 13 ft 18 kts 310°
2026-05-06 18:34 52.29997 4.74910 13 ft 21 kts 312°
2026-05-06 18:35 52.30085 4.74751 13 ft 16 kts 312°
2026-05-06 18:35 52.30147 4.74631 13 ft 15 kts 310°
2026-05-06 18:35 52.30238 4.74462 13 ft 24 kts 311°
2026-05-06 18:35 52.30311 4.74236 13 ft 17 kts 251°
2026-05-06 18:36 52.30283 4.74173 13 ft 1 kts 262°
2026-05-06 18:36 52.30304 4.74103 13 ft 15 kts 296°
2026-05-06 18:36 52.30233 4.73932 13 ft 20 kts 219°
2026-05-06 18:36 52.30203 4.73781 13 ft 12 kts 310°
2026-05-06 18:37 52.30263 4.73749 13 ft 13 kts
2026-05-06 18:37 52.30354 4.73758 13 ft 29 kts
2026-05-06 18:37 52.31120 4.73824 13 ft 133 kts
2026-05-06 18:37 52.32222 4.73908 353 ft 171 kts
2026-05-06 18:38 52.33387 4.74035 1397 ft 167 kts
2026-05-06 18:38 52.34517 4.74550 2195 ft 173 kts 22°
2026-05-06 18:38 52.35702 4.75384 2650 ft 198 kts 25°
2026-05-06 18:38 52.37025 4.76377 3037 ft 221 kts 28°
2026-05-06 18:39 52.38308 4.77837 3797 ft 226 kts 40°
2026-05-06 18:39 52.39475 4.79611 4756 ft 228 kts 45°
2026-05-06 18:39 52.40584 4.81455 5614 ft 233 kts 45°
2026-05-06 18:40 52.43027 4.85092 7204 ft 244 kts 26°
2026-05-06 18:40 52.44696 4.85750 8020 ft 248 kts
2026-05-06 18:40 52.46436 4.85866 8808 ft 253 kts
2026-05-06 18:40 52.48203 4.85893 9566 ft 258 kts 358°
2026-05-06 18:41 52.50000 4.85760 10334 ft 262 kts 356°
2026-05-06 18:41 52.51846 4.85645 11157 ft 265 kts
2026-05-06 18:41 52.53618 4.86499 11866 ft 273 kts 27°
2026-05-06 18:41 52.55105 4.88480 12526 ft 282 kts 45°
2026-05-06 18:42 52.56495 4.90797 12831 ft 290 kts 46°
2026-05-06 18:42 52.57843 4.93295 12944 ft 290 kts 51°
2026-05-06 18:42 52.59098 4.95845 12946 ft 287 kts 53°
2026-05-06 18:42 52.60332 4.98409 12943 ft 282 kts 53°
2026-05-06 18:43 52.61531 5.00916 12947 ft 276 kts 53°
2026-05-06 18:43 52.62719 5.03404 13311 ft 279 kts 52°
2026-05-06 18:43 52.63914 5.05913 14328 ft 271 kts 52°
2026-05-06 18:43 52.65060 5.08326 15042 ft 275 kts 51°
2026-05-06 18:44 52.66252 5.10836 15620 ft 283 kts 50°
2026-05-06 18:44 52.67480 5.13427 16172 ft 291 kts 50°
2026-05-06 18:44 52.68751 5.16112 16669 ft 303 kts 50°
2026-05-06 18:44 52.69628 5.17965 16812 ft 316 kts 50°
2026-05-06 18:45 52.71017 5.20898 17218 ft 329 kts 50°
2026-05-06 18:45 52.72953 5.24990 17644 ft 352 kts 50°
2026-05-06 18:45 52.73988 5.27181 17804 ft 364 kts 50°
2026-05-06 18:45 52.75564 5.30511 18126 ft 378 kts 50°
2026-05-06 18:46 52.77209 5.33992 18579 ft 388 kts 50°
2026-05-06 18:46 52.78856 5.37486 19179 ft 392 kts 50°
2026-05-06 18:46 52.80544 5.41073 19861 ft 395 kts 50°
2026-05-06 18:46 52.82264 5.44738 20064 ft 410 kts 50°
2026-05-06 18:47 52.84035 5.48518 20295 ft 423 kts 51°
2026-05-06 18:47 52.85854 5.52408 20772 ft 429 kts 51°
2026-05-06 18:47 52.87679 5.56320 21313 ft 432 kts 51°
2026-05-06 18:47 52.89513 5.60255 21839 ft 435 kts 50°
2026-05-06 18:48 52.91457 5.64150 22350 ft 438 kts 47°
2026-05-06 18:48 52.93442 5.67974 23006 ft 436 kts 47°
2026-05-06 18:48 52.95396 5.71740 23891 ft 429 kts 47°
2026-05-06 18:48 52.97375 5.75566 24358 ft 434 kts 48°
2026-05-06 18:49 52.99342 5.79379 24808 ft 438 kts 48°
2026-05-06 18:49 53.01318 5.83219 25270 ft 441 kts 48°
2026-05-06 18:49 53.03307 5.87092 25745 ft 443 kts 48°
2026-05-06 18:49 53.05300 5.90981 26291 ft 443 kts 48°
2026-05-06 18:50 53.07229 5.94754 26703 ft 445 kts 47°
2026-05-06 18:50 53.09322 5.98855 27113 ft 448 kts 47°
2026-05-06 18:50 53.11351 6.02836 27337 ft 456 kts 48°
2026-05-06 18:50 53.13414 6.06856 27726 ft 458 kts 48°
2026-05-06 18:51 53.15495 6.10884 28172 ft 458 kts 48°
2026-05-06 18:51 53.17571 6.14916 28643 ft 458 kts 48°
2026-05-06 18:51 53.19632 6.18934 29130 ft 457 kts 48°
2026-05-06 18:51 53.21728 6.23035 29598 ft 457 kts 48°
2026-05-06 18:52 53.23778 6.27056 30003 ft 458 kts 49°
2026-05-06 18:52 53.25871 6.31171 30346 ft 460 kts 50°
2026-05-06 18:52 53.27933 6.35235 30773 ft 460 kts 49°
2026-05-06 18:52 53.30011 6.39341 30895 ft 463 kts 49°
2026-05-06 18:53 53.32115 6.43505 30904 ft 464 kts 49°
2026-05-06 18:53 53.36328 6.51869 30911 ft 470 kts 49°
2026-05-06 18:54 53.40531 6.60243 30908 ft 470 kts 49°
2026-05-06 18:54 53.44755 6.68690 30907 ft 471 kts 50°
2026-05-06 18:55 53.48956 6.77120 30907 ft 472 kts 50°
2026-05-06 18:55 53.53147 6.85559 30905 ft 472 kts 50°
2026-05-06 18:56 53.57337 6.94026 30905 ft 472 kts 50°
2026-05-06 18:56 53.61524 7.02515 30905 ft 471 kts 50°
2026-05-06 18:57 53.65700 7.11010 30905 ft 472 kts 50°
2026-05-06 18:57 53.69875 7.19532 30905 ft 471 kts 50°
2026-05-06 18:58 53.74055 7.28095 30905 ft 472 kts 50°
2026-05-06 18:58 53.78221 7.36658 30905 ft 472 kts 50°
2026-05-06 18:59 53.82374 7.45225 30905 ft 471 kts 50°
2026-05-06 18:59 53.86551 7.53869 30903 ft 471 kts 50°
2026-05-06 19:00 53.90685 7.62456 30901 ft 471 kts 51°
2026-05-06 19:00 53.94809 7.71052 30900 ft 471 kts 51°
2026-05-06 19:01 53.98937 7.79685 30898 ft 471 kts 51°
2026-05-06 19:01 54.03046 7.88310 30897 ft 471 kts 51°
2026-05-06 19:02 54.07163 7.96980 30895 ft 471 kts 51°
2026-05-06 19:02 54.11264 8.05647 30892 ft 471 kts 51°
2026-05-06 19:03 54.15355 8.14323 30893 ft 470 kts 51°
2026-05-06 19:03 54.19439 8.23014 30892 ft 470 kts 51°
2026-05-06 19:04 54.23537 8.31765 30891 ft 470 kts 51°
2026-05-06 19:04 54.27608 8.40491 30898 ft 471 kts 51°
2026-05-06 19:05 54.31703 8.49299 30898 ft 474 kts 51°
2026-05-06 19:05 54.35789 8.58119 30917 ft 474 kts 51°
2026-05-06 19:06 54.39892 8.67007 30933 ft 476 kts 51°
2026-05-06 19:06 54.44000 8.75939 30915 ft 472 kts 51°
2026-05-06 19:07 54.48090 8.84862 30914 ft 473 kts 51°
2026-05-06 19:07 54.52156 8.93765 30923 ft 477 kts 51°
2026-05-06 19:08 54.56228 9.02713 30917 ft 474 kts 51°
2026-05-06 19:08 54.60289 9.11671 30915 ft 474 kts 52°
2026-05-06 19:09 54.64336 9.20627 30908 ft 473 kts 52°
2026-05-06 19:09 54.68393 9.29640 30914 ft 474 kts 51°
2026-05-06 19:10 54.72466 9.38723 30926 ft 477 kts 51°
2026-05-06 19:10 54.76355 9.47347 30929 ft 476 kts 51°
2026-05-06 19:11 54.80443 9.56442 30936 ft 475 kts 52°
2026-05-06 19:11 54.83798 9.63967 30941 ft 465 kts 52°
2026-05-06 19:12 54.87509 9.72337 30895 ft 461 kts 53°
2026-05-06 19:12 54.89449 9.76727 30587 ft 453 kts 53°
2026-05-06 19:12 54.91362 9.81065 30151 ft 448 kts 53°
2026-05-06 19:12 54.93271 9.85405 29671 ft 446 kts 53°
2026-05-06 19:13 54.95142 9.89667 29201 ft 443 kts 51°
2026-05-06 19:13 54.96747 9.93670 28855 ft 439 kts 56°
2026-05-06 19:13 54.98152 9.97910 28604 ft 434 kts 59°
2026-05-06 19:13 54.99570 10.02459 28245 ft 435 kts 60°
2026-05-06 19:14 55.00985 10.07137 27995 ft 438 kts 61°
2026-05-06 19:14 55.02401 10.11843 27746 ft 440 kts 61°
2026-05-06 19:14 55.03813 10.16550 27496 ft 437 kts 61°
2026-05-06 19:14 55.05212 10.21226 27245 ft 434 kts 61°
2026-05-06 19:15 55.06612 10.25916 26993 ft 432 kts 61°
2026-05-06 19:15 55.07995 10.30563 26742 ft 430 kts 61°
2026-05-06 19:15 55.09249 10.34787 26514 ft 429 kts 60°
2026-05-06 19:15 55.10609 10.39377 26264 ft 425 kts 60°
2026-05-06 19:16 55.11955 10.43930 26015 ft 421 kts 60°
2026-05-06 19:16 55.13292 10.48458 25764 ft 418 kts 60°
2026-05-06 19:16 55.14658 10.53008 25494 ft 416 kts 59°
2026-05-06 19:16 55.16004 10.57465 25036 ft 413 kts 59°
2026-05-06 19:17 55.17331 10.61888 24626 ft 410 kts 59°
2026-05-06 19:17 55.18518 10.65863 24245 ft 407 kts 59°
2026-05-06 19:17 55.19705 10.69852 23806 ft 406 kts 60°
2026-05-06 19:17 55.21020 10.74288 23269 ft 406 kts 61°
2026-05-06 19:18 55.22307 10.78645 22852 ft 403 kts 59°
2026-05-06 19:18 55.23582 10.82971 22453 ft 399 kts 60°
2026-05-06 19:18 55.24849 10.87283 22012 ft 397 kts 60°
2026-05-06 19:18 55.25980 10.91144 21616 ft 395 kts 60°
2026-05-06 19:19 55.27188 10.95275 21193 ft 393 kts 60°
2026-05-06 19:19 55.28430 10.99529 20774 ft 390 kts 61°
2026-05-06 19:19 55.29658 11.03745 20338 ft 388 kts 61°
2026-05-06 19:19 55.30879 11.07945 19879 ft 387 kts 62°
2026-05-06 19:20 55.32110 11.12189 19471 ft 384 kts 62°
2026-05-06 19:20 55.33313 11.16345 19077 ft 381 kts 62°
2026-05-06 19:20 55.34506 11.20480 18664 ft 379 kts 62°
2026-05-06 19:20 55.35576 11.24202 18316 ft 376 kts 62°
2026-05-06 19:21 55.36752 11.28299 17885 ft 375 kts 63°
2026-05-06 19:21 55.37917 11.32373 17532 ft 371 kts 61°
2026-05-06 19:21 55.38697 11.35108 17425 ft 364 kts 61°
2026-05-06 19:21 55.39740 11.38766 17162 ft 359 kts 61°
2026-05-06 19:22 55.40849 11.42662 16758 ft 357 kts 61°
2026-05-06 19:22 55.41956 11.46560 16345 ft 356 kts 61°
2026-05-06 19:22 55.42959 11.50102 16017 ft 353 kts 61°
2026-05-06 19:22 55.44050 11.53956 15741 ft 347 kts 61°
2026-05-06 19:23 55.44963 11.57186 15655 ft 333 kts 61°
2026-05-06 19:23 55.46023 11.60943 15544 ft 319 kts 61°
2026-05-06 19:23 55.46999 11.64409 15396 ft 312 kts 61°
2026-05-06 19:23 55.47962 11.67785 15113 ft 306 kts 60°
2026-05-06 19:24 55.48939 11.71164 14654 ft 305 kts 61°
2026-05-06 19:24 55.49892 11.74479 14220 ft 303 kts 61°
2026-05-06 19:24 55.50837 11.77784 13789 ft 301 kts 61°
2026-05-06 19:24 55.51774 11.81075 13364 ft 299 kts 62°
2026-05-06 19:25 55.52709 11.84373 13004 ft 295 kts 62°
2026-05-06 19:25 55.53622 11.87598 12560 ft 294 kts 62°
2026-05-06 19:25 55.54541 11.90856 12118 ft 293 kts 62°
2026-05-06 19:25 55.55448 11.94082 11697 ft 293 kts 62°
2026-05-06 19:26 55.56350 11.97295 11425 ft 292 kts 62°
2026-05-06 19:26 55.57247 12.00495 11183 ft 289 kts 62°
2026-05-06 19:26 55.58042 12.03340 10872 ft 286 kts 62°
2026-05-06 19:26 55.58921 12.06488 10419 ft 286 kts 63°
2026-05-06 19:27 55.59806 12.09665 9988 ft 284 kts 63°
2026-05-06 19:27 55.60575 12.12423 9617 ft 283 kts 62°
2026-05-06 19:27 55.60857 12.13414 9485 ft 282 kts 62°
2026-05-06 19:27 55.61273 12.14870 9292 ft 281 kts 62°
2026-05-06 19:28 55.62151 12.17973 8850 ft 281 kts 63°
2026-05-06 19:28 55.62193 12.18122 8829 ft 281 kts 63°
2026-05-06 19:28 55.63058 12.21206 8410 ft 279 kts 63°
2026-05-06 19:29 55.63921 12.24308 8050 ft 275 kts 63°
2026-05-06 19:29 55.64670 12.27014 7744 ft 271 kts 63°
2026-05-06 19:29 55.65501 12.30028 7476 ft 268 kts 63°
2026-05-06 19:29 55.66308 12.32967 7233 ft 262 kts 63°
2026-05-06 19:30 55.67100 12.35857 6799 ft 261 kts 64°
2026-05-06 19:30 55.67894 12.38766 6351 ft 261 kts 63°
2026-05-06 19:30 55.68674 12.41624 6148 ft 250 kts 64°
2026-05-06 19:30 55.69412 12.44337 5975 ft 240 kts 64°
2026-05-06 19:31 55.70033 12.46619 5704 ft 236 kts 64°
2026-05-06 19:31 55.70741 12.49226 5412 ft 231 kts 64°
2026-05-06 19:31 55.71835 12.53257 4845 ft 229 kts 64°
2026-05-06 19:32 55.72440 12.55486 4516 ft 228 kts 65°
2026-05-06 19:32 55.73129 12.58021 4126 ft 228 kts 65°
2026-05-06 19:32 55.73844 12.60657 4021 ft 223 kts 66°
2026-05-06 19:32 55.74515 12.63097 3910 ft 217 kts 64°
2026-05-06 19:33 55.75231 12.65443 3536 ft 217 kts 63°
2026-05-06 19:33 55.75970 12.67812 3166 ft 217 kts 63°
2026-05-06 19:33 55.76698 12.70121 3031 ft 212 kts 63°
2026-05-06 19:33 55.77397 12.72345 2992 ft 208 kts 63°
2026-05-06 19:34 55.78110 12.74613 2994 ft 208 kts 63°
2026-05-06 19:34 55.78735 12.76925 2970 ft 209 kts 79°
2026-05-06 19:34 55.78550 12.79431 2970 ft 209 kts 117°
2026-05-06 19:34 55.77667 12.81484 3033 ft 212 kts 131°
2026-05-06 19:35 55.76640 12.83411 3027 ft 213 kts 134°
2026-05-06 19:35 55.75529 12.85143 2984 ft 216 kts 152°
2026-05-06 19:35 55.74063 12.85468 2972 ft 218 kts 192°
2026-05-06 19:35 55.72682 12.84391 3018 ft 217 kts 199°
2026-05-06 19:36 55.71207 12.83988 3012 ft 214 kts 177°
2026-05-06 19:36 55.69719 12.84111 3013 ft 215 kts 174°
2026-05-06 19:36 55.68231 12.84273 3006 ft 216 kts 174°
2026-05-06 19:36 55.66756 12.84675 2963 ft 215 kts 154°
2026-05-06 19:37 55.65732 12.86444 2959 ft 208 kts 113°
2026-05-06 19:37 55.65664 12.89012 2974 ft 208 kts 72°
2026-05-06 19:37 55.66406 12.91182 3029 ft 208 kts 55°
2026-05-06 19:37 55.67003 12.92515 3025 ft 210 kts 54°
2026-05-06 19:38 55.68230 12.95221 3007 ft 212 kts 53°
2026-05-06 19:38 55.69148 12.97244 2997 ft 211 kts 53°
2026-05-06 19:38 55.70269 12.98877 2938 ft 215 kts 23°
2026-05-06 19:38 55.71761 12.99059 2982 ft 218 kts 356°
2026-05-06 19:39 55.73262 12.98653 2998 ft 220 kts 354°
2026-05-06 19:39 55.74782 12.98237 2996 ft 222 kts 354°
2026-05-06 19:39 55.76315 12.97785 2988 ft 225 kts 349°
2026-05-06 19:39 55.77640 12.96296 2947 ft 231 kts 309°
2026-05-06 19:40 55.78151 12.93706 2958 ft 225 kts 269°
2026-05-06 19:40 55.77654 12.91140 2983 ft 217 kts 232°
2026-05-06 19:40 55.76673 12.89147 3016 ft 214 kts 225°
2026-05-06 19:40 55.75649 12.87266 3005 ft 211 kts 222°
2026-05-06 19:41 55.74574 12.85503 2996 ft 208 kts 219°
2026-05-06 19:41 55.73521 12.83838 2820 ft 200 kts 219°
2026-05-06 19:41 55.72502 12.82243 2586 ft 192 kts 219°
2026-05-06 19:41 55.71515 12.80703 2353 ft 186 kts 218°
2026-05-06 19:42 55.70554 12.79205 2088 ft 181 kts 218°
2026-05-06 19:42 55.69622 12.77753 1841 ft 176 kts 217°
2026-05-06 19:42 55.69009 12.76800 1685 ft 172 kts 217°
2026-05-06 19:42 55.68208 12.75554 1496 ft 162 kts 217°
2026-05-06 19:43 55.67390 12.74283 1276 ft 152 kts 218°
2026-05-06 19:43 55.66617 12.73082 1074 ft 144 kts 220°
2026-05-06 19:43 55.65886 12.71947 912 ft 139 kts 219°
2026-05-06 19:43 55.65161 12.70822 715 ft 138 kts 219°
2026-05-06 19:44 55.64437 12.69700 532 ft 138 kts 219°
2026-05-06 19:44 55.63714 12.68578 348 ft 139 kts 219°
2026-05-06 19:44 55.62989 12.67454 167 ft 138 kts 219°
2026-05-06 19:44 55.62262 12.66330 29 ft 135 kts 219°
2026-05-06 19:45 55.61685 12.65454 25 ft 67 kts 222°
2026-05-06 19:45 55.61455 12.65088 25 ft 40 kts 222°
2026-05-06 19:45 55.61284 12.64726 25 ft 38 kts 241°
2026-05-06 19:45 55.61201 12.64323 25 ft 30 kts 252°
2026-05-06 19:46 55.61216 12.64129 25 ft 12 kts 328°
2026-05-06 19:46 55.61301 12.64135 25 ft 14 kts 32°
2026-05-06 19:46 55.61385 12.64230 25 ft 12 kts 33°
2026-05-06 19:46 55.61437 12.64290 25 ft 6 kts 33°
2026-05-06 19:47 55.61450 12.64305 25 ft 0 kts 33°
2026-05-06 19:47 55.61465 12.64322 25 ft 7 kts 33°
2026-05-06 19:47 55.61544 12.64416 25 ft 20 kts 33°
2026-05-06 19:48 55.61686 12.64576 25 ft 27 kts 32°
2026-05-06 19:48 55.61830 12.64744 25 ft 22 kts 33°
2026-05-06 19:48 55.61955 12.64888 25 ft 22 kts 32°
2026-05-06 19:48 55.62083 12.65035 25 ft 20 kts 33°
2026-05-06 19:49 55.62171 12.65140 25 ft 9 kts 34°
2026-05-06 19:49 55.62184 12.65155 25 ft 1 kts 34°
2026-05-06 19:49 55.62222 12.65193 25 ft 12 kts 19°
2026-05-06 19:49 55.62298 12.65083 25 ft 20 kts 287°
2026-05-06 19:50 55.62372 12.64827 25 ft 26 kts 302°
2026-05-06 19:50 55.62460 12.64571 25 ft 22 kts 303°
2026-05-06 19:50 55.62541 12.64367 25 ft 20 kts 304°
2026-05-06 19:50 55.62626 12.64135 25 ft 25 kts 302°
2026-05-06 19:51 55.62720 12.63911 25 ft 15 kts 351°
2026-05-06 19:51 55.62790 12.63979 25 ft 11 kts 32°
2026-05-06 19:51 55.62822 12.64006 25 ft 3 kts 349°
2026-05-06 19:51 55.62860 12.63993 25 ft 9 kts 359°
2026-05-06 19:52 55.62874 12.63997 25 ft 0 kts 13°